Time,TemperatureF,DewpointF,PressureIn,WindDirection,WindDirectionDegrees,WindSpeedMPH,WindSpeedGustMPH,Humidity,HourlyPrecipIn,Conditions,Clouds,dailyrainin,SolarRadiationWatts/m^2,SoftwareType,DateUTC
2013-06-13 00:02:00,85.0,73.0,29.91,WNW,282,2.0,12.0,67,0.00,,,0.00,0.000000,,2013-06-13 05:02:00,
2013-06-13 00:12:00,85.0,73.0,29.91,SW,219,6.0,13.0,67,0.00,,,0.00,0.000000,,2013-06-13 05:12:00,
2013-06-13 00:24:00,85.0,73.0,29.91,SW,219,6.0,13.0,67,0.00,,,0.00,0.000000,,2013-06-13 05:24:00,
2013-06-13 00:33:00,85.0,73.0,29.91,SSW,213,0.0,9.0,68,0.00,,,0.00,0.000000,,2013-06-13 05:33:00,
2013-06-13 00:43:00,85.0,73.0,29.90,SSW,211,1.0,11.0,68,0.00,,,0.00,0.000000,,2013-06-13 05:43:00,
2013-06-13 00:53:00,84.0,72.0,29.90,WSW,250,6.0,13.0,68,0.00,,,0.00,0.000000,,2013-06-13 05:53:00,
2013-06-13 01:02:00,84.0,73.0,29.90,West,280,6.0,14.0,69,0.00,,,0.00,0.000000,,2013-06-13 06:02:00,
2013-06-13 01:11:00,84.0,73.0,29.89,WSW,252,1.0,14.0,69,0.00,,,0.00,0.000000,,2013-06-13 06:11:00,
2013-06-13 01:22:00,84.0,73.0,29.89,West,273,0.0,16.0,69,0.00,,,0.00,0.000000,,2013-06-13 06:22:00,
2013-06-13 01:33:00,84.0,73.0,29.89,SW,229,3.0,12.0,70,0.00,,,0.00,0.000000,,2013-06-13 06:33:00,
2013-06-13 01:44:00,84.0,73.0,29.90,WNW,297,1.0,10.0,70,0.00,,,0.00,0.000000,,2013-06-13 06:44:00,
2013-06-13 01:52:00,83.0,73.0,29.90,WSW,239,4.0,11.0,71,0.00,,,0.00,0.000000,,2013-06-13 06:52:00,
2013-06-13 02:01:00,83.0,73.0,29.90,WSW,248,4.0,10.0,71,0.00,,,0.00,0.000000,,2013-06-13 07:01:00,
2013-06-13 02:11:00,83.0,73.0,29.90,SSW,202,5.0,11.0,71,0.00,,,0.00,0.000000,,2013-06-13 07:11:00,
2013-06-13 02:22:00,83.0,73.0,29.91,WNW,286,4.0,8.0,71,0.00,,,0.00,0.000000,,2013-06-13 07:22:00,
2013-06-13 02:33:00,83.0,73.0,29.91,NW,309,1.0,10.0,72,0.00,,,0.00,0.000000,,2013-06-13 07:33:00,
2013-06-13 02:42:00,83.0,73.0,29.91,WSW,239,0.0,7.0,72,0.00,,,0.00,0.000000,,2013-06-13 07:42:00,
2013-06-13 02:52:00,83.0,73.0,29.91,WSW,239,0.0,7.0,72,0.00,,,0.00,0.000000,,2013-06-13 07:52:00,
2013-06-13 03:01:00,82.0,72.0,29.90,SW,227,4.0,8.0,73,0.00,,,0.00,0.000000,,2013-06-13 08:01:00,
2013-06-13 03:11:00,82.0,72.0,29.90,West,267,2.0,10.0,73,0.00,,,0.00,0.000000,,2013-06-13 08:11:00,
2013-06-13 03:22:00,82.0,73.0,29.90,SW,236,1.0,10.0,74,0.00,,,0.00,0.000000,,2013-06-13 08:22:00,
2013-06-13 03:32:00,82.0,73.0,29.90,SSW,205,0.0,9.0,75,0.00,,,0.00,0.000000,,2013-06-13 08:32:00,
2013-06-13 03:43:00,82.0,73.0,29.90,West,271,0.0,7.0,75,0.00,,,0.00,0.000000,,2013-06-13 08:43:00,
2013-06-13 03:52:00,81.0,72.0,29.90,West,259,2.0,9.0,75,0.00,,,0.00,0.000000,,2013-06-13 08:52:00,
2013-06-13 04:02:00,81.0,73.0,29.89,SW,234,1.0,5.0,76,0.00,,,0.00,0.000000,,2013-06-13 09:02:00,
2013-06-13 04:11:00,81.0,73.0,29.89,WNW,286,2.0,8.0,76,0.00,,,0.00,0.000000,,2013-06-13 09:11:00,
2013-06-13 04:22:00,81.0,73.0,29.89,SW,231,2.0,8.0,76,0.00,,,0.00,0.000000,,2013-06-13 09:22:00,
2013-06-13 04:32:00,81.0,73.0,29.89,WNW,290,2.0,12.0,76,0.00,,,0.00,0.000000,,2013-06-13 09:32:00,
2013-06-13 04:42:00,81.0,73.0,29.89,SSW,211,3.0,8.0,76,0.00,,,0.00,0.000000,,2013-06-13 09:42:00,
2013-06-13 04:52:00,81.0,73.0,29.89,NNW,338,2.0,10.0,76,0.00,,,0.00,0.000000,,2013-06-13 09:52:00,
2013-06-13 05:01:00,81.0,73.0,29.89,West,273,0.0,11.0,76,0.00,,,0.00,0.000000,,2013-06-13 10:01:00,
2013-06-13 05:11:00,81.0,73.0,29.89,WSW,243,1.0,8.0,76,0.00,,,0.00,0.000000,,2013-06-13 10:11:00,
2013-06-13 05:22:00,81.0,73.0,29.89,SSW,194,1.0,11.0,76,0.00,,,0.00,0.000000,,2013-06-13 10:22:00,
2013-06-13 05:33:00,81.0,73.0,29.89,SW,235,0.0,11.0,77,0.00,,,0.00,0.000000,,2013-06-13 10:33:00,
2013-06-13 05:43:00,80.0,72.0,29.89,NNE,28,0.0,7.0,77,0.00,,,0.00,0.000000,,2013-06-13 10:43:00,
2013-06-13 05:53:00,80.0,72.0,29.89,SSW,200,2.0,6.0,77,0.00,,,0.00,0.000000,,2013-06-13 10:53:00,
2013-06-13 06:02:00,80.0,72.0,29.90,SW,234,3.0,9.0,77,0.00,,,0.00,5.000000,,2013-06-13 11:02:00,
2013-06-13 06:11:00,80.0,72.0,29.89,WNW,283,1.0,9.0,77,0.00,,,0.00,9.000000,,2013-06-13 11:11:00,
2013-06-13 06:23:00,80.0,72.0,29.90,West,270,2.0,7.0,77,0.00,,,0.00,16.000000,,2013-06-13 11:23:00,
2013-06-13 06:32:00,80.0,72.0,29.90,WNW,286,2.0,9.0,77,0.00,,,0.00,16.000000,,2013-06-13 11:32:00,
2013-06-13 06:42:00,81.0,73.0,29.90,SSW,211,0.0,10.0,76,0.00,,,0.00,28.000000,,2013-06-13 11:42:00,
2013-06-13 06:52:00,81.0,73.0,29.90,WSW,249,4.0,13.0,76,0.00,,,0.00,63.000000,,2013-06-13 11:52:00,
2013-06-13 07:01:00,81.0,73.0,29.91,WNW,284,4.0,9.0,76,0.00,,,0.00,139.000000,,2013-06-13 12:01:00,
2013-06-13 07:11:00,81.0,73.0,29.91,SW,225,2.0,12.0,76,0.00,,,0.00,165.000000,,2013-06-13 12:11:00,
2013-06-13 07:22:00,81.0,73.0,29.91,West,278,3.0,14.0,76,0.00,,,0.00,81.000000,,2013-06-13 12:22:00,
2013-06-13 07:35:00,81.0,73.0,29.91,SW,216,5.0,11.0,76,0.00,,,0.00,156.000000,,2013-06-13 12:35:00,
2013-06-13 07:42:00,82.0,74.0,29.90,West,278,1.0,11.0,76,0.00,,,0.00,123.000000,,2013-06-13 12:42:00,
2013-06-13 07:52:00,82.0,73.0,29.90,South,190,3.0,10.0,75,0.00,,,0.00,97.000000,,2013-06-13 12:52:00,
2013-06-13 08:01:00,82.0,73.0,29.91,WSW,244,5.0,15.0,75,0.00,,,0.00,320.000000,,2013-06-13 13:01:00,
2013-06-13 08:11:00,82.0,73.0,29.91,West,276,2.0,12.0,75,0.00,,,0.00,364.000000,,2013-06-13 13:11:00,
2013-06-13 08:21:00,83.0,74.0,29.91,WNW,292,3.0,11.0,74,0.00,,,0.00,190.000000,,2013-06-13 13:21:00,
2013-06-13 08:32:00,83.0,74.0,29.91,WNW,292,3.0,11.0,74,0.00,,,0.00,190.000000,,2013-06-13 13:32:00,
2013-06-13 08:43:00,83.0,73.0,29.91,West,261,3.0,12.0,73,0.00,,,0.00,181.000000,,2013-06-13 13:43:00,
2013-06-13 08:53:00,83.0,74.0,29.91,WSW,248,1.0,10.0,74,0.00,,,0.00,538.000000,,2013-06-13 13:53:00,
2013-06-13 09:02:00,83.0,74.0,29.91,NW,305,1.0,6.0,74,0.00,,,0.00,348.000000,,2013-06-13 14:02:00,
2013-06-13 09:11:00,84.0,74.0,29.91,South,181,1.0,14.0,73,0.00,,,0.00,466.000000,,2013-06-13 14:11:00,
2013-06-13 09:22:00,85.0,75.0,29.91,WSW,254,1.0,8.0,72,0.00,,,0.00,285.000000,,2013-06-13 14:22:00,
2013-06-13 09:33:00,85.0,74.0,29.91,WNW,294,4.0,9.0,70,0.00,,,0.00,248.000000,,2013-06-13 14:33:00,
2013-06-13 09:43:00,86.0,75.0,29.91,NW,313,2.0,10.0,70,0.00,,,0.00,622.000000,,2013-06-13 14:43:00,
2013-06-13 09:53:00,87.0,75.0,29.91,WNW,300,6.0,12.0,68,0.00,,,0.00,643.000000,,2013-06-13 14:53:00,
2013-06-13 10:01:00,87.0,75.0,29.90,NW,313,2.0,11.0,68,0.00,,,0.00,677.000000,,2013-06-13 15:01:00,
2013-06-13 10:12:00,88.0,76.0,29.90,West,261,1.0,9.0,67,0.00,,,0.00,696.000000,,2013-06-13 15:12:00,
2013-06-13 10:22:00,88.0,74.0,29.90,South,169,2.0,13.0,64,0.00,,,0.00,724.000000,,2013-06-13 15:22:00,
2013-06-13 10:33:00,89.0,74.0,29.90,NW,323,7.0,14.0,62,0.00,,,0.00,749.000000,,2013-06-13 15:33:00,
2013-06-13 10:43:00,89.0,74.0,29.90,West,279,7.0,14.0,62,0.00,,,0.00,765.000000,,2013-06-13 15:43:00,
2013-06-13 10:53:00,90.0,75.0,29.90,WNW,297,0.0,13.0,62,0.00,,,0.00,795.000000,,2013-06-13 15:53:00,
2013-06-13 11:02:00,91.0,75.0,29.89,WNW,285,1.0,11.0,60,0.00,,,0.00,816.000000,,2013-06-13 16:02:00,
2013-06-13 11:12:00,91.0,75.0,29.88,WSW,237,1.0,11.0,60,0.00,,,0.00,823.000000,,2013-06-13 16:12:00,
2013-06-13 11:22:00,91.0,75.0,29.88,NNW,346,0.0,9.0,60,0.00,,,0.00,844.000000,,2013-06-13 16:22:00,
2013-06-13 11:33:00,92.0,76.0,29.88,South,172,4.0,10.0,59,0.00,,,0.00,898.000000,,2013-06-13 16:33:00,
2013-06-13 11:43:00,91.0,74.0,29.88,West,278,4.0,15.0,58,0.00,,,0.00,886.000000,,2013-06-13 16:43:00,
2013-06-13 11:53:00,92.0,75.0,29.88,WNW,295,6.0,14.0,57,0.00,,,0.00,940.000000,,2013-06-13 16:53:00,
2013-06-13 12:02:00,92.0,75.0,29.88,WNW,284,6.0,18.0,57,0.00,,,0.00,1079.000000,,2013-06-13 17:02:00,
2013-06-13 12:11:00,92.0,75.0,29.88,North,355,2.0,15.0,57,0.00,,,0.00,1116.000000,,2013-06-13 17:11:00,
2013-06-13 12:24:00,94.0,76.0,29.88,WNW,289,5.0,15.0,56,0.00,,,0.00,626.000000,,2013-06-13 17:24:00,
2013-06-13 12:33:00,93.0,75.0,29.88,SW,236,1.0,15.0,57,0.00,,,0.00,355.000000,,2013-06-13 17:33:00,
2013-06-13 12:43:00,93.0,75.0,29.87,North,5,6.0,15.0,57,0.00,,,0.00,1039.000000,,2013-06-13 17:43:00,
2013-06-13 12:53:00,93.0,76.0,29.87,North,10,1.0,10.0,58,0.00,,,0.00,315.000000,,2013-06-13 17:53:00,
2013-06-13 13:02:00,93.0,75.0,29.87,NW,309,3.0,11.0,57,0.00,,,0.00,1072.000000,,2013-06-13 18:02:00,
2013-06-13 13:11:00,94.0,75.0,29.87,NNW,336,3.0,14.0,55,0.00,,,0.00,1037.000000,,2013-06-13 18:11:00,
2013-06-13 13:22:00,95.0,75.0,29.87,NNW,346,4.0,17.0,53,0.00,,,0.00,302.000000,,2013-06-13 18:22:00,
2013-06-13 13:33:00,94.0,74.0,29.87,NNW,344,7.0,16.0,53,0.00,,,0.00,1053.000000,,2013-06-13 18:33:00,
2013-06-13 13:43:00,94.0,74.0,29.87,WNW,301,7.0,19.0,53,0.00,,,0.00,299.000000,,2013-06-13 18:43:00,
2013-06-13 13:52:00,94.0,75.0,29.87,WNW,292,3.0,18.0,54,0.00,,,0.00,998.000000,,2013-06-13 18:52:00,
2013-06-13 14:01:00,94.0,74.0,29.87,NNW,330,10.0,18.0,53,0.00,,,0.00,1023.000000,,2013-06-13 19:01:00,
2013-06-13 14:11:00,94.0,74.0,29.87,NW,317,8.0,18.0,53,0.00,,,0.00,323.000000,,2013-06-13 19:11:00,
2013-06-13 14:22:00,94.0,75.0,29.86,North,351,8.0,16.0,54,0.00,,,0.00,947.000000,,2013-06-13 19:22:00,
2013-06-13 14:33:00,93.0,74.0,29.86,North,350,10.0,14.0,54,0.00,,,0.00,976.000000,,2013-06-13 19:33:00,
2013-06-13 14:43:00,93.0,73.0,29.86,North,355,9.0,20.0,53,0.00,,,0.00,930.000000,,2013-06-13 19:43:00,
2013-06-13 14:53:00,94.0,73.0,29.86,North,360,8.0,17.0,51,0.00,,,0.00,958.000000,,2013-06-13 19:53:00,
2013-06-13 15:01:00,95.0,73.0,29.86,WNW,287,2.0,16.0,50,0.00,,,0.00,1000.000000,,2013-06-13 20:01:00,
2013-06-13 15:11:00,94.0,73.0,29.85,NNE,26,5.0,13.0,51,0.00,,,0.00,327.000000,,2013-06-13 20:11:00,
2013-06-13 15:44:00,93.0,68.0,29.86,WNW,294,5.0,15.0,44,0.00,,,0.00,798.000000,,2013-06-13 20:44:00,
2013-06-13 15:53:00,94.0,68.0,29.86,NE,35,4.0,18.0,43,0.00,,,0.00,773.000000,,2013-06-13 20:53:00,
2013-06-13 16:02:00,94.0,67.0,29.86,NNE,13,6.0,15.0,42,0.00,,,0.00,745.000000,,2013-06-13 21:02:00,
2013-06-13 16:11:00,93.0,68.0,29.85,North,355,4.0,15.0,44,0.00,,,0.00,714.000000,,2013-06-13 21:11:00,
2013-06-13 16:22:00,93.0,68.0,29.85,NE,40,7.0,14.0,45,0.00,,,0.00,694.000000,,2013-06-13 21:22:00,
2013-06-13 16:34:00,93.0,68.0,29.85,NNW,337,5.0,15.0,45,0.00,,,0.00,661.000000,,2013-06-13 21:34:00,
2013-06-13 16:43:00,92.0,68.0,29.86,NNE,13,10.0,11.0,46,0.00,,,0.00,629.000000,,2013-06-13 21:43:00,
2013-06-13 16:52:00,92.0,69.0,29.86,NNE,24,5.0,12.0,47,0.00,,,0.00,610.000000,,2013-06-13 21:52:00,
2013-06-13 17:02:00,92.0,69.0,29.86,NW,321,2.0,14.0,48,0.00,,,0.00,575.000000,,2013-06-13 22:02:00,
2013-06-13 17:22:00,91.0,69.0,29.86,NNE,27,5.0,13.0,49,0.00,,,0.00,513.000000,,2013-06-13 22:22:00,
2013-06-13 17:43:00,90.0,68.0,29.86,North,351,8.0,16.0,49,0.00,,,0.00,450.000000,,2013-06-13 22:43:00,
2013-06-13 17:52:00,89.0,68.0,29.86,ENE,67,6.0,14.0,50,0.00,,,0.00,406.000000,,2013-06-13 22:52:00,
2013-06-13 18:02:00,88.0,67.0,29.86,North,355,8.0,17.0,50,0.00,,,0.00,373.000000,,2013-06-13 23:02:00,
2013-06-13 18:11:00,89.0,68.0,29.86,NNE,16,3.0,13.0,51,0.00,,,0.00,348.000000,,2013-06-13 23:11:00,
2013-06-13 18:22:00,89.0,68.0,29.86,NNW,346,5.0,12.0,50,0.00,,,0.00,318.000000,,2013-06-13 23:22:00,
2013-06-13 18:32:00,88.0,69.0,29.86,NE,42,3.0,14.0,53,0.00,,,0.00,281.000000,,2013-06-13 23:32:00,
2013-06-13 18:43:00,87.0,68.0,29.86,North,5,3.0,13.0,54,0.00,,,0.00,250.000000,,2013-06-13 23:43:00,
2013-06-13 18:52:00,87.0,69.0,29.86,North,360,7.0,11.0,55,0.00,,,0.00,213.000000,,2013-06-13 23:52:00,
2013-06-13 19:01:00,86.0,68.0,29.86,NE,42,5.0,12.0,55,0.00,,,0.00,178.000000,,2013-06-14 00:01:00,
2013-06-13 19:12:00,86.0,68.0,29.86,NE,35,7.0,13.0,55,0.00,,,0.00,142.000000,,2013-06-14 00:12:00,
2013-06-13 19:22:00,85.0,68.0,29.87,NE,38,5.0,15.0,57,0.00,,,0.00,107.000000,,2013-06-14 00:22:00,
2013-06-13 19:34:00,85.0,69.0,29.87,NNE,22,2.0,13.0,58,0.00,,,0.00,79.000000,,2013-06-14 00:34:00,
2013-06-13 19:43:00,84.0,68.0,29.88,North,349,2.0,13.0,58,0.00,,,0.00,53.000000,,2013-06-14 00:43:00,
2013-06-13 19:53:00,83.0,68.0,29.88,NE,53,6.0,12.0,60,0.00,,,0.00,37.000000,,2013-06-14 00:53:00,
2013-06-13 20:01:00,83.0,68.0,29.89,NE,35,6.0,11.0,60,0.00,,,0.00,21.000000,,2013-06-14 01:01:00,
2013-06-13 20:11:00,82.0,67.0,29.89,NNE,32,5.0,12.0,61,0.00,,,0.00,14.000000,,2013-06-14 01:11:00,
2013-06-13 20:22:00,82.0,68.0,29.90,NNE,20,4.0,11.0,62,0.00,,,0.00,7.000000,,2013-06-14 01:22:00,
2013-06-13 20:43:00,81.0,67.0,29.90,NNE,26,5.0,13.0,63,0.00,,,0.00,0.000000,,2013-06-14 01:43:00,
2013-06-13 20:52:00,80.0,66.0,29.90,NE,50,1.0,11.0,63,0.00,,,0.00,0.000000,,2013-06-14 01:52:00,
2013-06-13 21:02:00,80.0,66.0,29.90,NNE,28,2.0,7.0,63,0.00,,,0.00,0.000000,,2013-06-14 02:02:00,
2013-06-13 21:11:00,80.0,67.0,29.91,ENE,65,4.0,8.0,64,0.00,,,0.00,0.000000,,2013-06-14 02:11:00,
2013-06-13 21:22:00,79.0,66.0,29.91,NE,37,1.0,8.0,64,0.00,,,0.00,0.000000,,2013-06-14 02:22:00,
2013-06-13 21:32:00,79.0,66.0,29.91,ENE,74,2.0,10.0,64,0.00,,,0.00,0.000000,,2013-06-14 02:32:00,
2013-06-13 21:43:00,79.0,66.0,29.91,ENE,67,4.0,10.0,65,0.00,,,0.00,0.000000,,2013-06-14 02:43:00,
2013-06-13 21:52:00,79.0,66.0,29.91,NE,47,1.0,9.0,65,0.00,,,0.00,0.000000,,2013-06-14 02:52:00,
2013-06-13 22:02:00,78.0,66.0,29.92,NE,40,0.0,7.0,66,0.00,,,0.00,0.000000,,2013-06-14 03:02:00,
2013-06-13 22:12:00,78.0,66.0,29.92,North,5,1.0,11.0,66,0.00,,,0.00,0.000000,,2013-06-14 03:12:00,
2013-06-13 22:22:00,78.0,66.0,29.92,ENE,71,1.0,8.0,66,0.00,,,0.00,0.000000,,2013-06-14 03:22:00,
2013-06-13 22:34:00,78.0,66.0,29.92,NE,41,3.0,10.0,66,0.00,,,0.00,0.000000,,2013-06-14 03:34:00,
2013-06-13 22:43:00,78.0,66.0,29.93,North,11,3.0,10.0,66,0.00,,,0.00,0.000000,,2013-06-14 03:43:00,
2013-06-13 22:52:00,77.0,65.0,29.92,ENE,60,1.0,5.0,67,0.00,,,0.00,0.000000,,2013-06-14 03:52:00,
2013-06-13 23:01:00,77.0,65.0,29.92,North,5,0.0,6.0,67,0.00,,,0.00,0.000000,,2013-06-14 04:01:00,
2013-06-13 23:12:00,77.0,66.0,29.92,NE,49,0.0,5.0,68,0.00,,,0.00,0.000000,,2013-06-14 04:12:00,
2013-06-13 23:22:00,77.0,66.0,29.93,NE,42,0.0,4.0,68,0.00,,,0.00,0.000000,,2013-06-14 04:22:00,
2013-06-13 23:33:00,77.0,66.0,29.93,NNE,28,0.0,4.0,70,0.00,,,0.00,0.000000,,2013-06-14 04:33:00,
2013-06-13 23:43:00,76.0,65.0,29.93,NNE,23,0.0,0.0,70,0.00,,,0.00,0.000000,,2013-06-14 04:43:00,
2013-06-13 23:53:00,76.0,66.0,29.93,NNE,23,0.0,0.0,71,0.00,,,0.00,0.000000,,2013-06-14 04:53:00,